TimeEST,TemperatureF,Dew PointF,Humidity,Sea Level PressureIn,VisibilityMPH,Wind Direction,Wind SpeedMPH,Gust SpeedMPH,PrecipitationIn,Events,Conditions,WindDirDegrees,DateUTC
12:15 AM,12.2,5.0,73,29.99,7.0,West,17.3,27.6,N/A,,Mostly Cloudy,270,2013-02-01 05:15:00
12:35 AM,12.2,5.0,73,29.99,10.0,West,15.0,26.5,N/A,,Overcast,270,2013-02-01 05:35:00
12:55 AM,12.2,3.2,67,30.00,10.0,West,15.0,24.2,N/A,,Mostly Cloudy,260,2013-02-01 05:55:00
1:15 AM,12.2,3.2,67,30.01,10.0,West,13.8,20.7,N/A,,Overcast,260,2013-02-01 06:15:00
1:35 AM,12.2,3.2,67,30.02,10.0,West,19.6,27.6,N/A,,Overcast,260,2013-02-01 06:35:00
1:55 AM,10.4,3.2,73,30.03,10.0,West,16.1,24.2,N/A,,Scattered Clouds,260,2013-02-01 06:55:00
2:15 AM,10.4,3.2,73,30.04,10.0,West,16.1,20.7,N/A,,Clear,260,2013-02-01 07:15:00
2:35 AM,10.4,3.2,73,30.05,10.0,West,15.0,21.9,N/A,,Clear,270,2013-02-01 07:35:00
2:55 AM,10.4,3.2,73,30.06,10.0,West,15.0,24.2,N/A,,Clear,260,2013-02-01 07:55:00
3:15 AM,10.4,3.2,73,30.07,10.0,West,16.1,23.0,N/A,,Clear,260,2013-02-01 08:15:00
3:35 AM,10.4,1.4,67,30.08,10.0,West,11.5,21.9,N/A,,Clear,260,2013-02-01 08:35:00
3:55 AM,10.4,1.4,67,30.09,10.0,West,15.0,19.6,N/A,,Clear,260,2013-02-01 08:55:00
4:15 AM,8.6,1.4,73,30.10,10.0,WSW,10.4,17.3,N/A,,Clear,240,2013-02-01 09:15:00
4:55 AM,8.6,1.4,73,30.12,10.0,WSW,9.2,20.7,N/A,,Clear,250,2013-02-01 09:55:00
5:15 AM,8.6,1.4,73,30.13,10.0,WSW,11.5,19.6,N/A,,Clear,250,2013-02-01 10:15:00
5:35 AM,8.6,1.4,73,30.14,10.0,WSW,13.8,21.9,N/A,,Clear,250,2013-02-01 10:35:00
5:55 AM,8.6,1.4,73,30.15,10.0,WSW,11.5,19.6,N/A,,Clear,250,2013-02-01 10:55:00
6:15 AM,8.6,1.4,73,30.16,10.0,WSW,9.2,17.3,N/A,,Clear,250,2013-02-01 11:15:00
6:35 AM,8.6,-0.4,67,30.17,10.0,West,16.1,23.0,N/A,,Clear,260,2013-02-01 11:35:00
6:55 AM,8.6,-0.4,67,30.18,10.0,West,12.7,17.3,N/A,,Clear,260,2013-02-01 11:55:00
7:15 AM,8.6,-0.4,67,30.19,10.0,West,11.5,18.4,N/A,,Clear,260,2013-02-01 12:15:00
7:35 AM,6.8,-0.4,72,30.20,10.0,West,12.7,17.3,N/A,,Clear,260,2013-02-01 12:35:00
7:55 AM,6.8,-0.4,72,30.21,10.0,West,10.4,24.2,N/A,,Clear,260,2013-02-01 12:55:00
8:15 AM,6.8,-0.4,72,30.23,10.0,WSW,9.2,16.1,N/A,,Clear,250,2013-02-01 13:15:00
8:35 AM,6.8,-0.4,72,30.23,10.0,WSW,11.5,18.4,N/A,,Clear,250,2013-02-01 13:35:00
8:55 AM,8.6,-0.4,67,30.24,10.0,West,13.8,19.6,N/A,,Clear,260,2013-02-01 13:55:00
9:15 AM,8.6,-0.4,67,30.25,10.0,West,13.8,21.9,N/A,,Clear,260,2013-02-01 14:15:00
9:35 AM,8.6,-0.4,67,30.26,10.0,WSW,12.7,20.7,N/A,,Clear,250,2013-02-01 14:35:00
9:55 AM,10.4,1.4,67,30.26,10.0,WSW,11.5,17.3,N/A,,Clear,240,2013-02-01 14:55:00
10:15 AM,10.4,1.4,67,30.27,10.0,WSW,12.7,19.6,N/A,,Clear,240,2013-02-01 15:15:00
10:35 AM,10.4,1.4,67,30.28,10.0,WSW,11.5,17.3,N/A,,Clear,250,2013-02-01 15:35:00
10:55 AM,12.2,1.4,62,30.28,10.0,WSW,11.5,-,N/A,,Clear,240,2013-02-01 15:55:00
11:15 AM,12.2,1.4,62,30.29,10.0,West,15.0,19.6,N/A,,Clear,260,2013-02-01 16:15:00
11:35 AM,12.2,3.2,67,30.30,10.0,SW,12.7,16.1,N/A,,Clear,230,2013-02-01 16:35:00
11:55 AM,12.2,3.2,67,30.30,10.0,West,15.0,19.6,N/A,,Clear,270,2013-02-01 16:55:00
12:15 PM,14.0,3.2,62,30.30,10.0,WSW,10.4,20.7,N/A,,Clear,240,2013-02-01 17:15:00
12:35 PM,14.0,3.2,62,30.30,10.0,West,9.2,17.3,N/A,,Scattered Clouds,260,2013-02-01 17:35:00
12:55 PM,14.0,3.2,62,30.30,10.0,SW,10.4,18.4,N/A,,Scattered Clouds,230,2013-02-01 17:55:00
1:15 PM,14.0,3.2,62,30.30,10.0,WSW,9.2,17.3,N/A,,Scattered Clouds,250,2013-02-01 18:15:00
1:35 PM,14.0,3.2,62,30.30,10.0,WSW,12.7,19.6,N/A,,Mostly Cloudy,250,2013-02-01 18:35:00
1:55 PM,14.0,3.2,62,30.30,10.0,West,10.4,-,N/A,,Mostly Cloudy,260,2013-02-01 18:55:00
2:15 PM,12.2,3.2,67,30.30,10.0,WSW,10.4,17.3,N/A,,Mostly Cloudy,240,2013-02-01 19:15:00
2:35 PM,12.2,3.2,67,30.29,10.0,WSW,10.4,-,N/A,,Mostly Cloudy,250,2013-02-01 19:35:00
2:55 PM,12.2,3.2,67,30.29,5.0,WSW,8.1,18.4,N/A,,Haze,250,2013-02-01 19:55:00
3:15 PM,14.0,3.2,62,30.29,10.0,WSW,12.7,18.4,N/A,,Scattered Clouds,250,2013-02-01 20:15:00
3:35 PM,14.0,3.2,62,30.28,10.0,SW,11.5,-,N/A,,Mostly Cloudy,230,2013-02-01 20:35:00
3:55 PM,12.2,1.4,62,30.29,10.0,WSW,10.4,17.3,N/A,,Mostly Cloudy,240,2013-02-01 20:55:00
4:15 PM,14.0,3.2,62,30.28,10.0,WSW,8.1,18.4,N/A,,Mostly Cloudy,240,2013-02-01 21:15:00
4:35 PM,14.0,3.2,62,30.29,10.0,WSW,11.5,-,N/A,,Mostly Cloudy,250,2013-02-01 21:35:00
4:55 PM,14.0,3.2,62,30.28,10.0,WSW,10.4,17.3,N/A,,Mostly Cloudy,250,2013-02-01 21:55:00
5:15 PM,14.0,3.2,62,30.28,10.0,WSW,11.5,17.3,N/A,,Mostly Cloudy,240,2013-02-01 22:15:00
5:35 PM,14.0,3.2,62,30.28,10.0,West,10.4,16.1,N/A,,Mostly Cloudy,260,2013-02-01 22:35:00
5:55 PM,14.0,3.2,62,30.28,10.0,SW,11.5,18.4,N/A,,Mostly Cloudy,230,2013-02-01 22:55:00
6:15 PM,14.0,3.2,62,30.28,10.0,WSW,5.8,-,N/A,,Mostly Cloudy,240,2013-02-01 23:15:00
6:35 PM,14.0,3.2,62,30.28,10.0,SW,3.5,-,N/A,,Overcast,230,2013-02-01 23:35:00
6:55 PM,14.0,3.2,62,30.27,10.0,SW,6.9,-,N/A,,Overcast,220,2013-02-01 23:55:00
7:15 PM,14.0,5.0,67,30.28,10.0,SW,8.1,-,N/A,,Overcast,230,2013-02-02 00:15:00
7:35 PM,14.0,3.2,62,30.28,10.0,SW,4.6,-,N/A,,Overcast,230,2013-02-02 00:35:00
7:55 PM,14.0,5.0,67,30.28,10.0,SW,8.1,-,N/A,,Overcast,230,2013-02-02 00:55:00
8:15 PM,14.0,5.0,67,30.27,10.0,SW,5.8,-,N/A,,Overcast,220,2013-02-02 01:15:00
9:15 PM,14.0,5.0,67,30.25,10.0,SSW,5.8,-,N/A,,Clear,210,2013-02-02 02:15:00
9:35 PM,14.0,5.0,67,30.25,10.0,SW,5.8,-,N/A,,Clear,220,2013-02-02 02:35:00
9:55 PM,14.0,5.0,67,30.25,10.0,SW,5.8,-,N/A,,Clear,220,2013-02-02 02:55:00
10:15 PM,14.0,5.0,67,30.25,10.0,SSW,8.1,-,N/A,,Scattered Clouds,210,2013-02-02 03:15:00
10:55 PM,14.0,5.0,67,30.24,10.0,SSW,6.9,-,N/A,,Clear,210,2013-02-02 03:55:00
11:15 PM,14.0,5.0,67,30.23,10.0,SSW,6.9,-,N/A,,Clear,210,2013-02-02 04:15:00
11:35 PM,14.0,6.8,73,30.22,10.0,SSW,6.9,-,N/A,,Clear,210,2013-02-02 04:35:00
11:55 PM,14.0,6.8,73,30.22,10.0,SSW,8.1,-,N/A,,Clear,210,2013-02-02 04:55:00